This is the latest recevied weather packets stored in our database for station/object ALANSN-2. If no packets are shown the sender has not sent any weather packets the latest 10 day(s).
| Time | Temp. | Humidity | Pressure | Rain* | Wind** | Luminosity | Snow |
|---|---|---|---|---|---|---|---|
| 1788044220 | 21.67° C | 87% | 1028.4 hPa | 0 mm | - | 11 W/m² | - |
| 1788043920 | 21.67° C | 87% | 1028.4 hPa | 0 mm | - | 11 W/m² | - |
| 1788043620 | 21.67° C | 88% | 1028.2 hPa | 0 mm | - | 15 W/m² | - |
| 1788043320 | 22.22° C | 86% | 1028.3 hPa | 0 mm | - | 12 W/m² | - |
| 1788043020 | 22.22° C | 86% | 1028.3 hPa | 0 mm | - | 12 W/m² | - |
| 1788042720 | 22.22° C | 86% | 1028.1 hPa | 0 mm | - | 15 W/m² | - |
| 1788042420 | 22.22° C | 84% | 1028.2 hPa | 0 mm | - | 29 W/m² | - |
| 1788042120 | 22.22° C | 84% | 1028.2 hPa | 0 mm | - | 29 W/m² | - |
| 1788041520 | 22.22° C | 83% | 1028.2 hPa | 0 mm | - | 38 W/m² | - |
| 1788041220 | 22.78° C | 82% | 1028.2 hPa | 0 mm | - | 58 W/m² | - |
| 1788040920 | 22.78° C | 81% | 1028 hPa | 0 mm | - | 60 W/m² | - |
| 1788040620 | 22.78° C | 81% | 1028.1 hPa | 0 mm | - | 72 W/m² | - |
| 1788040320 | 22.78° C | 82% | 1027.9 hPa | 0 mm | - | 86 W/m² | - |
| 1788040019 | 22.78° C | 81% | 1027.9 hPa | 0 mm | - | 95 W/m² | - |
| 1788039720 | 22.78° C | 82% | 1028 hPa | 0 mm | - | 111 W/m² | - |
| 1788039420 | 22.78° C | 80% | 1027.9 hPa | 0 mm | - | 109 W/m² | - |
| 1788039118 | 22.78° C | 80% | 1027.9 hPa | 0 mm | - | 110 W/m² | - |
| 1788038820 | 22.78° C | 81% | 1027.8 hPa | 0 mm | - | 108 W/m² | - |
| 1788038517 | 22.78° C | 80% | 1028 hPa | 0 mm | - | 100 W/m² | - |
| 1788038220 | 22.78° C | 79% | 1028 hPa | 0 mm | - | 101 W/m² | - |
| 1788037920 | 22.78° C | 79% | 1028.2 hPa | 0 mm | - | 75 W/m² | - |
| 1788037620 | 22.22° C | 82% | 1028.2 hPa | 0 mm | - | 52 W/m² | - |
| 1788037320 | 22.22° C | 82% | 1028.1 hPa | 0 mm | - | 54 W/m² | - |
| 1788037021 | 22.78° C | 82% | 1028.2 hPa | 0 mm | - | 51 W/m² | - |
| 1788036720 | 22.78° C | 80% | 1028.3 hPa | 0 mm | - | 77 W/m² | - |
* Rain latest hour (hover to see other rain measurements)
** Current wind speed in m/s (hover to see current wind gust speed)